This demonstration page uses our WeatherBlox Daily Observations layout. Learn more.

Left ArrowRight Arrow

53.62937, 11.41316

Hourly Observations for June 11, 2019

Temp ( °F °C ) Dew Point ( °F °C ) Humidity (%) Winds ( mph kmh ) Pressure ( in mb ) Visibility ( mi km ) Precip ( " mm )
6:50 am 06:50 Mostly Cloudy 59 15 57 14 94 94 NE 9 15 29.80 1009 30 48 N/A
7:20 am 07:20 Mostly Cloudy 59 15 57 14 94 94 NE 10 17 29.80 1009 30 48 N/A
7:50 am 07:50 Mostly Cloudy 59 15 57 14 94 94 NE 5 7 29.80 1009 30 48 N/A
8:20 am 08:20 Mostly Cloudy 59 15 48 9 68 68 NE 3 6 29.80 1009 4 7 N/A
8:50 am 08:50 Mostly Cloudy 61 16 59 15 94 94 NNE 6 9 29.80 1009 4 6 N/A
9:20 am 09:20 Mostly Cloudy 61 16 59 15 94 94 NE 5 7 29.80 1009 3 5 N/A
9:50 am 09:50 Mostly Cloudy 61 16 59 15 94 94 VRB 2 4 29.83 1010 4 6 N/A
10:20 am 10:20 Mostly Cloudy 61 16 59 15 94 94 VRB 2 4 29.83 1010 5 8 N/A
10:50 am 10:50 Mostly Cloudy with Mist and Fog 61 16 59 15 94 94 S 3 6 29.83 1010 3 4 N/A
11:20 am 11:20 Mostly Cloudy with Mist and Fog 63 17 61 16 94 94 VRB 5 7 29.82 1010 3 5 N/A
11:50 am 11:50 Mostly Cloudy 64 18 61 16 88 88 W 5 7 29.82 1010 4 7 N/A
12:20 pm 12:20 Mostly Cloudy 64 18 61 16 88 88 WSW 5 7 29.82 1010 30 48 N/A
12:50 pm 12:50 Mostly Cloudy 66 19 61 16 83 83 VRB 2 4 29.82 1010 30 48 N/A
1:20 pm 13:20 Mostly Cloudy 68 20 61 16 78 78 SSW 6 9 29.82 1010 30 48 N/A
1:50 pm 13:50 Mostly Cloudy 68 20 61 16 78 78 WSW 6 9 29.82 1010 30 48 N/A
2:20 pm 14:20 Mostly Cloudy 70 21 61 16 73 73 WSW 8 13 29.85 1011 30 48 N/A
2:50 pm 14:50 Mostly Cloudy 70 21 61 16 73 73 WSW 10 17 29.85 1011 30 48 N/A
3:20 pm 15:20 Mostly Cloudy 72 22 63 17 73 73 WSW 10 17 29.85 1011 30 48 N/A
3:50 pm 15:50 Partly Cloudy 73 23 61 16 65 65 W 9 15 29.85 1011 30 48 N/A
4:20 pm 16:20 Partly Cloudy 72 22 59 15 65 65 VRB 6 9 29.85 1011 30 48 N/A
4:50 pm 16:50 Partly Cloudy 73 23 61 16 65 65 W 6 9 29.85 1011 30 48 N/A
5:20 pm 17:20 Partly Cloudy 73 23 61 16 65 65 W 5 7 29.85 1011 30 48 N/A
5:50 pm 17:50 Partly Cloudy 72 22 61 16 69 69 W 6 9 29.85 1011 30 48 N/A
6:20 pm 18:20 Partly Cloudy 73 23 61 16 65 65 VRB 1 2 29.85 1011 30 48 N/A
6:50 pm 18:50 Partly Cloudy 72 22 61 16 69 69 W 3 6 29.85 1011 30 48 N/A
7:20 pm 19:20 Mostly Sunny 73 23 61 16 65 65 VRB 2 4 29.85 1011 30 48 N/A
7:50 pm 19:50 Mostly Sunny 73 23 61 16 65 65 VRB 2 4 29.85 1011 30 48 N/A
8:20 pm 20:20 Partly Cloudy 72 22 61 16 69 69 VRB 2 4 29.88 1012 30 48 N/A
8:50 pm 20:50 Partly Cloudy 72 22 61 16 69 69 VRB 2 4 29.88 1012 30 48 N/A

Powered by AerisWeather